This is the latest recevied weather packets stored in our database for station/object S56VIL-11. If no packets are shown the sender has not sent any weather packets the latest 10 day(s).
| Time | Temp. | Humidity | Pressure | Rain* | Wind** | Luminosity | Snow |
|---|---|---|---|---|---|---|---|
| 1777963277 | 13.89° C | 55% | 1026.6 hPa | - | - | - | - |
| 1777962377 | 13.33° C | 56% | 1026.6 hPa | - | - | - | - |
| 1777961477 | 12.78° C | 56% | 1026.6 hPa | - | - | - | - |
| 1777960576 | 12.22° C | 55% | 1026.5 hPa | - | - | - | - |
| 1777959676 | 12.78° C | 56% | 1026.5 hPa | - | - | - | - |
| 1777958776 | 12.78° C | 56% | 1026.3 hPa | - | - | - | - |
| 1777957876 | 13.33° C | 55% | 1026.4 hPa | - | - | - | - |
| 1777956976 | 13.33° C | 55% | 1026.2 hPa | - | - | - | - |
| 1777956076 | 13.33° C | 55% | 1026.2 hPa | - | - | - | - |
| 1777955176 | 11.11° C | 55% | 1026.2 hPa | - | - | - | - |
| 1777954276 | 11.11° C | 55% | 1026.2 hPa | - | - | - | - |
| 1777953376 | 12.22° C | 54% | 1026.2 hPa | - | - | - | - |
| 1777952476 | 12.22° C | 53% | 1026.1 hPa | - | - | - | - |
| 1777951576 | 12.22° C | 53% | 1026.2 hPa | - | - | - | - |
| 1777950676 | 12.78° C | 53% | 1026.3 hPa | - | - | - | - |
| 1777949776 | 12.22° C | 53% | 1026.5 hPa | - | - | - | - |
| 1777948876 | 12.22° C | 54% | 1026.8 hPa | - | - | - | - |
| 1777947976 | 12.22° C | 54% | 1026.9 hPa | - | - | - | - |
| 1777947076 | 11.67° C | 54% | 1027.1 hPa | - | - | - | - |
| 1777946176 | 11.67° C | 55% | 1027.2 hPa | - | - | - | - |
| 1777945276 | 11.67° C | 54% | 1027.3 hPa | - | - | - | - |
| 1777944376 | 11.67° C | 55% | 1027.4 hPa | - | - | - | - |
| 1777943475 | 11.11° C | 55% | 1027.5 hPa | - | - | - | - |
| 1777942575 | 11.11° C | 55% | 1027.7 hPa | - | - | - | - |
| 1777941676 | 11.67° C | 54% | 1027.9 hPa | - | - | - | - |
* Rain since midnight (hover to see other rain measurements)
** Current wind speed in m/s (hover to see current wind gust speed)